Flag for Malaysia Weather past 2 weeks in Kuala Lumpur, Malaysia

Now
86 °F

Partly sunny.


Feels Like: 93 °F
Forecast: 77 / 91 °F
Wind: 3 mph from South

Location: Sultan Abdul Aziz Shah-Subang

Current Time: Apr 18, 2015 at 11:33:22 AM

Latest Report: Apr 18, 2015 at 10:00 AM


Visibility: N/A

Pressure: 29.89 "Hg

Humidity: 66%

Dew point: 73 °F

Location of Kuala LumpurLocation

Historic Weather in Kuala Lumpur — Graph

°F

Kuala Lumpur temperature yesterday

Maximum temperature yesterday: 97 °F (at 3:00 PM)
Minimum temperature yesterday: 81 °F (at 4:00 AM)
Average temperature yesterday: 85 °F

Past Weeks' High & Low Weather Summary

 TemperatureHumidityPressure
High97 °F (Apr 9, 3:00 PM)100% (Apr 10, 6:00 AM)29.98 "Hg (Apr 10, 6:00 AM)
Low77 °F (Apr 4, 6:00 PM)37% (Apr 15, 2:00 PM)29.65 "Hg (Apr 4, 4:00 PM)
Average84 °F75%29.81 "Hg
* Reported Apr 3 10:00 AM — Apr 18 10:00 AM, Kuala Lumpur, Weather by CustomWeather, © 2015

Note: Actual official high and low records may vary slightly from our data, if they occured in-between our weather recording intervals... More about our weather records

Advertising

Kuala Lumpur weather history for previous 24 hours

 ConditionsComfort  
Time TempWeatherWind HumidityBarometerVisibility
10:00 AM
Sat, Apr 18
86 °FPartly sunny.3 mph66%29.89 "HgN/A
9:00 AM82 °FBroken clouds.1 mph74%29.89 "HgN/A
8:00 AM81 °FPartly cloudy.2 mph79%29.86 "Hg4 mi
7:00 AM79 °FPartly cloudy.1 mph84%29.83 "Hg5 mi
6:00 AM79 °FPartly cloudy.1 mph84%29.80 "Hg4 mi
5:00 AM79 °FPartly cloudy.No wind84%29.80 "Hg4 mi
4:00 AM79 °FPartly cloudy.1 mph84%29.80 "Hg5 mi
3:00 AM79 °FPartly cloudy.1 mph84%29.83 "Hg5 mi
2:00 AM79 °FPartly cloudy.3 mph84%29.86 "Hg5 mi
1:00 AM79 °FPartly cloudy.7 mph84%29.86 "Hg5 mi
12:00 AM82 °FThunderstorms. Partly cloudy.6 mph74%29.86 "Hg4 mi
11:00 PM
Fri, Apr 17
82 °FThunderstorms. Partly cloudy.3 mph74%29.86 "Hg4 mi
10:00 PM82 °FPartly cloudy.1 mph74%29.83 "Hg4 mi
9:00 PM82 °FPartly cloudy.2 mph74%29.80 "Hg4 mi
8:00 PM82 °FBroken clouds.5 mph74%29.74 "Hg5 mi
7:00 PM82 °FBroken clouds.3 mph74%29.74 "Hg6 mi
6:00 PM82 °FBroken clouds.2 mph74%29.74 "Hg5 mi
5:00 PM82 °FThunderstorms. Broken clouds.9 mph66%29.74 "Hg1 mi
4:00 PM88 °FThunderstorms. Broken clouds.14 mph62%29.74 "HgN/A
3:00 PM97 °FBroken clouds.3 mph44%29.77 "HgN/A
2:00 PM95 °FBroken clouds.5 mph44%29.80 "HgN/A
1:00 PM95 °FBroken clouds.3 mph47%29.83 "HgN/A
12:00 PM93 °FBroken clouds.5 mph49%29.89 "HgN/A
11:00 AM91 °FBroken clouds.5 mph52%29.89 "HgN/A
Weather by CustomWeather, © 2015

See weather overviewHow to use our weather pages